OCO 2 (40059 NORAD) Tracking and Keplerian Element Data

This shows tracking and keplerian element data for the satellite.

Feedback or suggestion? Click here.




ElementValue
Catalog40059
NameOCO 2
Epoch Orbit23733
Epoch Day352.16387732
Epoch Year2018
RAAN290.7131
Inclination98.215
Eccentricity0.000126
Argument of Perigee87.334
Mean Anonmoly272.8002
Mean Motion14.57106644
Decay Rate1.8E-07
L11 40059U 14035A 18352.16387732 .00000018 00000-0 14049-4 0 9998
L22 40059 98.2150 290.7131 0001260 87.3340 272.8002 14.57106644237339

Live tracking and technical data element details for OCO 2 (NORAD 40059). OCO 2 can be tracked NOW for your location showing map with azimuth and elevation plus other details from your city location.

Track the satellite on the map from your city or location and see movement details for azimuth, elevation, latitude, longitude, range, height, and movement on the map or in text.







IsCatalogInMostPopularTable: catalog: 40059, numindb: 94
Update: records affected: 1



GetName: 40059 OCO 2

Hit Count: updated at: Wed, 19 Dec 2018 16:29:42 GMT